Location: *
(42.3233°N, 9.3931°E)
Time: 12:47:51
(UTC+00:00)

Daily predictions for brighter satellites

Satellite Brightness Start Highest point End
(mag) Time Altitude Azimuth Time Altitude Azimuth Time Altitude Azimuth
OAO 2 Rocket 4.5 16:59:18 10° WSW 17:04:06 37° S 17:08:58 10° ESE
Unknown 4.3 17:01:42 10° WSW 17:05:45 51° NNW 17:09:48 10° NE
ASTEX 1 3.9 17:02:45 10° NNE 17:07:23 39° E 17:12:00 10° SSE
Unknown 4.4 17:03:28 10° WSW 17:07:29 49° NNW 17:11:32 10° NE
Unknown 4.4 17:05:04 10° WSW 17:09:05 48° NNW 17:13:07 10° NE
Cosmos 1486 Rocket 4.4 17:04:11 10° NNW 17:09:30 73° WSW 17:14:48 10° S
Unknown 4.5 17:06:48 10° WSW 17:10:49 47° NNW 17:14:50 10° NE
Cosmos 1626 2.6 17:08:49 10° NNW 17:12:31 66° W 17:16:11 10° S
Cosmos 1825 Rocket 3.5 17:08:34 10° N 17:12:56 69° E 17:17:19 10° SSE
Cosmos 1271 Rocket 3.0 17:09:18 10° N 17:13:11 50° ENE 17:17:05 10° SSE
Cosmos 1833 Rocket 4.2 17:10:51 10° N 17:14:24 17° NE 17:17:57 10° E
Cosmos 1953 Rocket 3.8 17:10:32 10° N 17:14:47 48° ENE 17:18:58 10° SSE
Cosmos 1354 Rocket 4.0 17:10:24 10° NNW 17:15:38 65° ENE 17:20:48 10° SSE
SL-4 R/B 1.8 17:12:41 10° NW 17:16:36 71° NNE 17:20:13 10° ESE
Cosmos 1726 3.0 17:13:59 10° SSE 17:17:08 28° E 17:20:17 10° NNE
SWAS 4.5 17:16:26 10° SSW 17:20:37 60° ESE 17:24:51 10° NNE
Cosmos 968 Rocket 3.5 17:15:22 10° NNW 17:20:40 81° ENE 17:25:56 10° SSE
EO 1 Delta rocket 4.5 17:19:01 10° SE 17:23:08 33° ENE 17:27:21 10° N
H-2A R/B 4.0 17:20:51 10° S 17:24:34 46° W 17:28:22 10° NNW
Cosmos 1606 Rocket 3.5 17:21:35 10° S 17:25:59 88° E 17:30:22 10° N
Ariane Rocket 4.0 17:23:10 10° ESE 17:27:16 25° ENE 17:31:23 10° N
Cosmos 1242 Rocket 3.1 17:26:05 10° N 17:29:33 38° ENE 17:33:00 10° SE
Unknown 4.1 17:28:27 10° NNW 17:30:37 22° NNE 17:31:50 16° ENE
Cosmos 1703 3.9 17:28:21 10° N 17:31:57 33° ENE 17:35:30 10° SE
Cosmos 1953 2.9 17:28:55 10° SSW 17:32:56 62° W 17:36:59 10° N
Cosmos 2082 Rocket 3.8 17:30:29 10° N 17:34:09 17° NE 17:36:26 14° ENE
Cosmos 1992 Rocket 4.4 17:29:58 10° SSW 17:35:10 69° WNW 17:40:25 10° NNE
COSMOS 2406 3.6 17:30:34 10° NNW 17:36:07 45° ENE 17:41:36 10° SE
Cosmos 1758 Rocket 4.3 17:31:52 10° NNW 17:36:14 59° W 17:40:37 10° S
CSL-04 Debris 4.1 17:34:20 10° SSE 17:39:42 67° ENE 17:45:08 10° N
Cosmos 1503 Rocket 4.3 17:35:14 10° NNW 17:40:23 70° WSW 17:45:31 10° S
Cosmos 292 Rocket 3.8 17:36:20 10° S 17:40:56 53° ESE 17:45:34 10° NNE
Lacrosse 5 3.5 17:38:15 10° NNW 17:41:58 20° NNE 17:44:44 13° ENE
Cosmos 489 Rocket 4.5 17:38:56 10° S 17:45:01 60° ESE 17:51:06 10° NNE
Cosmos 2285 Rocket 4.4 17:39:39 10° NNW 17:46:03 68° WSW 17:52:23 10° S
FengYun 1-2 T 4.4 17:41:33 10° SSE 17:47:12 84° WSW 17:52:52 10° NNW
Meteor 2-10 3.9 17:42:53 10° S 17:47:56 67° E 17:52:57 10° NNE
Cosmos 1777 Rocket 4.5 17:43:13 10° N 17:48:06 38° ENE 17:52:10 14° SE
Cosmos 839 Rocket 4.2 17:42:55 10° NNW 17:49:05 60° NE 17:56:04 10° SE
Meteor 1-11 4.4 17:44:38 10° N 17:50:18 54° ENE 17:55:57 10° SSE
SKYMED 2 4.1 17:47:03 10° N 17:51:21 63° WNW 17:55:38 10° SSW
YAOGAN 1 2.5 17:49:48 10° SSE 17:54:08 89° ENE 17:58:29 10° NNW
Cosmos 1844 Rocket 3.7 17:49:43 10° SW 17:55:09 47° WNW 18:00:36 10° NNE
YAOGAN 6 3.1 17:52:44 10° S 17:56:23 63° W 18:00:02 10° NNW
H-2A R/B 3.6 17:57:23 17° ENE 17:57:23 17° ENE 18:00:33 10° NNE
Meteor 1-16 Rocket 4.4 17:54:55 10° SSW 18:00:31 74° W 18:05:59 10° N
Cosmos 1939 Rocket 2.9 17:56:55 10° SSE 18:00:44 51° ENE 18:04:39 10° N
Lacrosse 5 rocket 1.9 18:01:42 10° NW 18:05:25 52° SW 18:08:32 15° SSE
Cosmos 1908 3.1 18:02:06 10° S 18:05:59 79° E 18:09:54 10° N
Cosmos 482 Debris 3.8 18:08:38 10° NW 18:13:19 89° NE 18:13:57 55° SE
Cosmos 2278 Rocket 2.1 18:08:07 10° S 18:13:42 63° ESE 18:19:19 10° NNE
Shenzhou-11 Module 1.9 18:12:49 10° W 18:15:24 71° NW 18:15:24 71° NW
Cosmos 1328 4.4 18:13:38 10° NNW 18:17:33 58° W 18:21:25 10° S
CZ-4C R/B 4.4 18:12:30 10° NW 18:19:17 37° WSW 18:26:42 10° S
Cosmos 2058 Rocket 4.2 18:16:22 10° SSW 18:20:32 44° WNW 18:24:43 10° N
Cosmos 1339 Rocket 4.4 18:14:33 10° S 18:20:37 90° E 18:26:47 10° N
CZ-4 R/B 3.3 18:18:02 10° SSW 18:21:46 33° W 18:25:35 10° NNW
ATLAS 5 CENTAUR R/B 4.1 18:21:45 10° WNW 18:24:48 18° NNW 18:28:06 10° N
OAO 3 Rocket 4.1 18:29:11 10° WSW 18:33:41 35° S 18:34:26 34° SSE
Abrixas rocket 3.3 18:31:00 10° SW 18:32:58 36° SW 18:32:58 36° SW
Cosmos 1459 Rocket 4.2 18:28:36 10° N 18:34:31 44° ENE 18:35:04 43° E
Cosmos 1605 Rocket 4.2 18:29:07 10° NNW 18:35:18 71° W 18:41:21 10° S
ADEOS Rocket 3.6 18:33:04 10° NNE 18:40:26 46° E 18:47:18 10° SSE
Cosmos 1727 Rocket 3.9 18:34:23 10° S 18:40:35 88° E 18:46:47 10° N
SJ-11-01 4.2 18:42:01 62° NE 18:42:01 62° NE 18:46:26 10° N
OAO 2 Rocket 4.5 18:43:42 10° WSW 18:48:24 33° SSW 18:49:01 32° S
Cosmos 1802 Rocket 4.3 18:44:00 10° N 18:49:49 48° ENE 18:49:49 48° ENE
ARGOS 3.9 18:57:06 38° NNE 18:57:06 38° NNE 19:00:45 10° N
SL-4 R/B 4.1 18:53:23 10° W 18:55:45 16° SW 18:56:20 16° SW
Cosmos 2173 Rocket 3.8 18:50:21 10° N 18:56:37 65° E 18:56:56 64° E
Cosmos 1833 Rocket 2.6 18:53:27 10° NNW 18:59:06 86° WSW 18:59:53 67° SSE
BREEZE M DEB (TANK) 3.0 18:56:32 10° WNW 18:59:35 70° SSW 18:59:45 69° SSW
Ariane Rocket 4.2 19:01:12 10° S 19:05:59 41° W 19:10:49 10° NNW
Gbstr 26 Del rocket 4.2 19:01:13 10° NW 19:07:42 67° NNE 19:08:27 63° ENE
USA 238 DEB 3.6 19:01:56 10° SW 19:08:37 87° WNW 19:11:08 43° NNE
USA 238 3.5 19:02:03 10° SW 19:08:44 88° NW 19:11:11 44° NNE
Cosmos 1000 Rocket 4.3 19:14:22 87° E 19:14:22 87° E 19:20:39 10° N
USA 234 3.8 19:17:27 41° S 19:17:27 41° S 19:21:53 10° SSW
Cosmos 2100 Rocket 3.9 19:09:34 10° N 19:15:48 84° W 19:16:25 73° SSW
Cosmos 967 Rocket 4.4 19:10:47 10° NNW 19:17:00 77° NNE 19:17:00 77° NNE
SPOT 3 Rocket 4.1 19:19:13 50° NNW 19:19:13 50° NNW 19:23:03 10° NNW
Cosmos 2082 Rocket 2.3 19:13:18 10° NNW 19:18:18 69° NNW 19:18:18 69° NNW
Lacrosse 5 3.1 19:20:50 10° NW 19:23:56 36° NNW 19:23:56 36° NNW
NOSS 3-2 (A) 3.8 19:29:22 10° SW 19:33:54 55° WSW 19:33:54 55° WSW
H-2A R/B 3.3 19:38:01 38° NNW 19:38:01 38° NNW 19:41:22 10° NNW
NOSS 3-3 (A) 4.4 19:35:13 10° NW 19:42:40 86° WNW 19:42:40 86° WNW
NOSS 3-3 (C) 4.4 19:35:19 10° NW 19:42:45 86° NW 19:42:45 86° NW
Cosmos 2278 Rocket 4.4 19:53:54 10° W 19:58:15 22° NW 20:02:38 10° N
H-2A R/B 4.4 19:27:32 10° WSW 20:04:22 49° S 20:04:27 49° S
